• In Hungary
  • List of Countries
  • For 7 days
  • Water Temperature
  • Satellite Maps
  • Weather Map
  • News
  • Weather Widgets
  • user-avatar
    Login

    Hourly Weather Morzyce

    Today, 23 September, Sunday

    Time Temperature Precipitation Wind Pressure Humidity
    00:00 +11°C° 0 mm 3 mps 750 mmHg 65%
    01:00 +10°C° 0 mm 4 mps 750 mmHg 66%
    02:00 +10°C° 0 mm 4 mps 750 mmHg 66%
    03:00 +10°C° 0 mm 3 mps 750 mmHg 67%
    04:00 +10°C° 0 mm 3 mps 750 mmHg 68%
    05:00 +10°C° 0.2 mm 4 mps 750 mmHg 71%
    06:00 +10°C° 0.2 mm 4 mps 749 mmHg 74%
    07:00 +11°C° 0 mm 4 mps 749 mmHg 76%
    08:00 +11°C° 0.1 mm 4 mps 749 mmHg 73%
    09:00 +12°C° 0.1 mm 4 mps 749 mmHg 70%
    10:00 +13°C° 0.1 mm 5 mps 749 mmHg 68%
    11:00 +14°C° 0 mm 4 mps 749 mmHg 64%
    12:00 +14°C° 0 mm 4 mps 748 mmHg 60%
    13:00 +15°C° 0 mm 4 mps 748 mmHg 56%
    14:00 +15°C° 0.2 mm 4 mps 747 mmHg 61%
    15:00 +14°C° 0.2 mm 3 mps 747 mmHg 65%
    16:00 +14°C° 0.2 mm 2 mps 746 mmHg 70%
    17:00 +13°C° 1.8 mm 2 mps 745 mmHg 77%
    18:00 +13°C° 1.8 mm 2 mps 744 mmHg 83%
    19:00 +12°C° 1.8 mm 2 mps 743 mmHg 90%
    20:00 +10°C° 3.4 mm 3 mps 742 mmHg 90%
    21:00 +10°C° 3.4 mm 4 mps 741 mmHg 91%
    22:00 +9°C° 3.4 mm 5 mps 740 mmHg 91%
    23:00 +9°C° 1.3 mm 6 mps 740 mmHg 90%

    Tomorrow, 24 September, Monday

    Time Temperature Precipitation Wind Pressure Humidity
    00:00 +9°C° 1.3 mm 7 mps 740 mmHg 89%
    01:00 +7°C° 1.3 mm 8 mps 740 mmHg 89%
    02:00 +8°C° 1 mm 7 mps 742 mmHg 87%
    03:00 +8°C° 1 mm 7 mps 743 mmHg 86%
    04:00 +8°C° 1 mm 7 mps 744 mmHg 85%
    05:00 +8°C° 0.1 mm 7 mps 745 mmHg 83%
    06:00 +7°C° 0.1 mm 8 mps 746 mmHg 82%
    07:00 +9°C° 0.1 mm 8 mps 746 mmHg 80%
    08:00 +8°C° 0.1 mm 9 mps 747 mmHg 76%
    09:00 +10°C° 0.1 mm 9 mps 748 mmHg 71%
    10:00 +10°C° 0.1 mm 9 mps 748 mmHg 67%
    11:00 +9°C° 0.2 mm 10 mps 749 mmHg 64%
    12:00 +11°C° 0.2 mm 10 mps 749 mmHg 62%
    13:00 +11°C° 0.2 mm 10 mps 750 mmHg 60%
    14:00 +9°C° 0.2 mm 10 mps 750 mmHg 60%
    15:00 +10°C° 0.2 mm 9 mps 750 mmHg 61%
    16:00 +10°C° 0.2 mm 9 mps 751 mmHg 61%
    17:00 +9°C° 0.2 mm 8 mps 751 mmHg 66%
    18:00 +9°C° 0.2 mm 7 mps 752 mmHg 71%
    19:00 +8°C° 0.2 mm 6 mps 753 mmHg 76%
    20:00 +7°C° 0 mm 6 mps 754 mmHg 76%
    21:00 +7°C° 0 mm 6 mps 754 mmHg 77%
    22:00 +7°C° 0 mm 5 mps 755 mmHg 78%
    23:00 +6°C° 0 mm 5 mps 756 mmHg 78%

    Day after tomorrow, 25 September, Tuesday

    Time Temperature Precipitation Wind Pressure Humidity
    00:00 +6°C° 0 mm 5 mps 757 mmHg 78%
    01:00 +6°C° 0 mm 5 mps 757 mmHg 78%
    02:00 +6°C° 0 mm 5 mps 758 mmHg 79%
    03:00 +5°C° 0 mm 5 mps 758 mmHg 81%
    04:00 +5°C° 0 mm 5 mps 758 mmHg 82%
    05:00 +5°C° 0 mm 5 mps 759 mmHg 78%
    06:00 +5°C° 0 mm 5 mps 759 mmHg 75%
    07:00 +6°C° 0 mm 5 mps 760 mmHg 71%
    08:00 +7°C° 0 mm 5 mps 761 mmHg 64%
    09:00 +9°C° 0 mm 6 mps 761 mmHg 56%
    10:00 +10°C° 0 mm 7 mps 762 mmHg 48%
    11:00 +11°C° 0 mm 7 mps 762 mmHg 46%
    12:00 +11°C° 0 mm 7 mps 762 mmHg 43%
    13:00 +12°C° 0 mm 7 mps 762 mmHg 40%
    14:00 +11°C° 0 mm 6 mps 762 mmHg 40%
    15:00 +11°C° 0 mm 6 mps 762 mmHg 40%
    16:00 +12°C° 0 mm 5 mps 762 mmHg 40%
    17:00 +10°C° 0 mm 4 mps 763 mmHg 44%
    18:00 +9°C° 0 mm 3 mps 763 mmHg 47%
    19:00 +8°C° 0 mm 2 mps 764 mmHg 51%
    20:00 +7°C° 0 mm 2 mps 764 mmHg 52%
    21:00 +7°C° 0 mm 2 mps 764 mmHg 54%
    22:00 +7°C° 0 mm 1 mps 765 mmHg 55%
    23:00 +6°C° 0 mm 2 mps 765 mmHg 57%

    26 September, Wednesday

    Time Temperature Precipitation Wind Pressure Humidity
    00:00 +6°C° 0 mm 2 mps 765 mmHg 59%
    01:00 +5°C° 0 mm 2 mps 765 mmHg 62%
    02:00 +5°C° 0 mm 2 mps 764 mmHg 66%
    03:00 +5°C° 0 mm 2 mps 764 mmHg 69%
    04:00 +4°C° 0 mm 3 mps 764 mmHg 73%
    05:00 +4°C° 0 mm 3 mps 764 mmHg 73%
    06:00 +5°C° 0 mm 3 mps 764 mmHg 73%
    07:00 +6°C° 0 mm 4 mps 764 mmHg 72%
    08:00 +7°C° 0 mm 5 mps 764 mmHg 65%
    09:00 +9°C° 0 mm 5 mps 763 mmHg 58%
    10:00 +11°C° 0 mm 6 mps 763 mmHg 51%
    11:00 +13°C° 0 mm 6 mps 762 mmHg 49%
    12:00 +13°C° 0 mm 6 mps 762 mmHg 47%
    13:00 +14°C° 0 mm 7 mps 761 mmHg 44%
    14:00 +14°C° 0 mm 6 mps 760 mmHg 45%
    15:00 +14°C° 0 mm 6 mps 760 mmHg 47%
    16:00 +14°C° 0 mm 6 mps 759 mmHg 48%
    17:00 +13°C° 0 mm 6 mps 759 mmHg 48%
    18:00 +13°C° 0 mm 6 mps 758 mmHg 48%
    19:00 +11°C° 0 mm 6 mps 758 mmHg 48%
    20:00 +11°C° 0.3 mm 6 mps 758 mmHg 52%
    21:00 +11°C° 0.3 mm 6 mps 757 mmHg 56%
    22:00 +11°C° 0.3 mm 6 mps 757 mmHg 60%
    23:00 +10°C° 0.4 mm 7 mps 757 mmHg 62%

    27 September, Thursday

    Time Temperature Precipitation Wind Pressure Humidity
    00:00 +10°C° 0.4 mm 7 mps 756 mmHg 65%
    01:00 +10°C° 0.4 mm 7 mps 756 mmHg 68%
    02:00 +10°C° 0 mm 7 mps 756 mmHg 67%
    03:00 +10°C° 0 mm 7 mps 755 mmHg 67%
    04:00 +11°C° 0 mm 7 mps 755 mmHg 67%
    05:00 +11°C° 0 mm 7 mps 755 mmHg 68%
    06:00 +11°C° 0 mm 7 mps 755 mmHg 70%
    07:00 +11°C° 0 mm 7 mps 755 mmHg 72%
    08:00 +12°C° 0 mm 7 mps 755 mmHg 71%
    09:00 +14°C° 0 mm 7 mps 756 mmHg 71%
    10:00 +15°C° 0 mm 7 mps 756 mmHg 71%
    11:00 +16°C° 0 mm 7 mps 756 mmHg 69%
    12:00 +17°C° 0 mm 7 mps 755 mmHg 66%
    13:00 +18°C° 0 mm 7 mps 755 mmHg 64%
    14:00 +19°C° 0 mm 6 mps 755 mmHg 65%
    15:00 +19°C° 0 mm 5 mps 755 mmHg 66%
    16:00 +19°C° 0 mm 5 mps 755 mmHg 67%
    17:00 +18°C° 0 mm 4 mps 755 mmHg 71%
    18:00 +17°C° 0 mm 4 mps 755 mmHg 75%
    19:00 +17°C° 0 mm 3 mps 755 mmHg 79%
    20:00 +16°C° 0 mm 3 mps 754 mmHg 80%
    21:00 +15°C° 0 mm 4 mps 754 mmHg 81%
    22:00 +14°C° 0 mm 4 mps 754 mmHg 82%
    23:00 +14°C° 0 mm 4 mps 753 mmHg 82%

    28 September, Friday

    Time Temperature Precipitation Wind Pressure Humidity
    00:00 +14°C° 0 mm 4 mps 753 mmHg 81%
    01:00 +14°C° 0 mm 5 mps 753 mmHg 80%
    02:00 +14°C° 0 mm 5 mps 752 mmHg 78%
    03:00 +13°C° 0 mm 5 mps 752 mmHg 77%
    04:00 +13°C° 0 mm 5 mps 752 mmHg 75%
    05:00 +13°C° 0 mm 5 mps 751 mmHg 75%
    06:00 +13°C° 0 mm 5 mps 751 mmHg 74%
    07:00 +13°C° 0 mm 5 mps 751 mmHg 74%
    08:00 +15°C° 0 mm 5 mps 752 mmHg 72%
    09:00 +16°C° 0 mm 5 mps 752 mmHg 69%
    10:00 +17°C° 0 mm 5 mps 752 mmHg 67%
    11:00 +18°C° 0 mm 4 mps 752 mmHg 67%
    12:00 +18°C° 0 mm 4 mps 752 mmHg 66%
    13:00 +18°C° 0 mm 4 mps 752 mmHg 66%
    14:00 +18°C° 0 mm 4 mps 752 mmHg 66%
    15:00 +17°C° 0 mm 3 mps 752 mmHg 65%
    16:00 +17°C° 0 mm 3 mps 752 mmHg 65%
    17:00 +16°C° 0 mm 3 mps 753 mmHg 65%
    18:00 +15°C° 0 mm 2 mps 753 mmHg 66%
    19:00 +14°C° 0 mm 2 mps 754 mmHg 67%
    20:00 +13°C° 0 mm 2 mps 754 mmHg 66%
    21:00 +12°C° 0 mm 3 mps 754 mmHg 66%
    22:00 +12°C° 0 mm 3 mps 755 mmHg 65%
    23:00 +11°C° 0 mm 3 mps 755 mmHg 68%
    Show more